Satellite: NCUBE2
Catalog number: 28897
Epoch time:      08010.27226604
Element set:     448
Inclination:      098.1131 deg
RA of node:       267.7820 deg
Eccentricity:    0.0016920
Arg of perigee:   184.4649 deg
Mean anomaly:     175.6396 deg
Mean motion:   14.59790823 rev/day
Decay rate:       1.24e-06 rev/day^2
Epoch rev:           10958
Checksum:              323

Satellite: FCAL
Catalog number: 29667
Epoch time:      08010.65671676
Element set:     657
Inclination:      051.6318 deg
RA of node:       079.2835 deg
Eccentricity:    0.0010239
Arg of perigee:   076.4291 deg
Mean anomaly:     283.7858 deg
Mean motion:   15.98616253 rev/day
Decay rate:     3.9380e-04 rev/day^2
Epoch rev:            6106
Checksum:              333

Satellite: FALCON
Catalog number: 30776
Epoch time:      08009.54259183
Element set:    0231
Inclination:      035.4341 deg
RA of node:       041.5969 deg
Eccentricity:    0.0000670
Arg of perigee:   030.1214 deg
Mean anomaly:     329.9541 deg
Mean motion:   15.02846898 rev/day
Decay rate:       5.45e-06 rev/day^2
Epoch rev:           04611
Checksum:              280

Satellite: MAST
Catalog number: 31126
Epoch time:      08009.24695377
Element set:    0228
Inclination:      098.0616 deg
RA of node:       079.9217 deg
Eccentricity:    0.0095857
Arg of perigee:   107.5825 deg
Mean anomaly:     253.5891 deg
Mean motion:   14.53391948 rev/day
Decay rate:       3.41e-06 rev/day^2
Epoch rev:           03878
Checksum:              335

Satellite: CAPE1
Catalog number: 31130
Epoch time:      08009.93240846
Element set:    0214
Inclination:      098.0599 deg
RA of node:       079.9539 deg
Eccentricity:    0.0103572
Arg of perigee:   106.9963 deg
Mean anomaly:     254.2588 deg
Mean motion:   14.51919809 rev/day
Decay rate:       -3.4e-07 rev/day^2
Epoch rev:           03861
Checksum:              320

/EX





More information about the Keps mailing list